| time (UTC) | temp F | wind direction | speed knots | gust knots | rain 1hr in | rain 24hr in | rain mn in | humidity % | barometer mb |
| 20260505184613 | 61 | 0.0 | 0.0 | 0.00 | 0.06 | 0.05 | 79 | 1013.3 | |
| 20260505183610 | 62 | 0 | 0.0 | 3.5 | 0.00 | 0.06 | 0.05 | 78 | 1013.4 |
| 20260505182606 | 62 | 0 | 0.0 | 1.7 | 0.00 | 0.06 | 0.05 | 77 | 1013.5 |
| 20260505181605 | 63 | 326 | 0.0 | 1.7 | 0.00 | 0.06 | 0.05 | 76 | 1013.6 |
| 20260505180600 | 63 | 338 | 0.9 | 3.5 | 0.00 | 0.06 | 0.05 | 75 | 1013.7 |
| 20260505175557 | 64 | 354 | 0.9 | 1.7 | 0.00 | 0.06 | 0.05 | 74 | 1013.6 |
| 20260505174554 | 64 | 0 | 0.9 | 1.7 | 0.00 | 0.06 | 0.05 | 74 | 1013.5 |
| 20260505173551 | 64 | 343 | 0.0 | 1.7 | 0.00 | 0.06 | 0.05 | 72 | 1013.6 |
| 20260505172548 | 65 | 335 | 0.0 | 1.7 | 0.00 | 0.06 | 0.05 | 69 | 1013.5 |
| 20260505171545 | 66 | 0.0 | 1.7 | 0.00 | 0.06 | 0.05 | 68 | 1013.5 | |
| 20260505170544 | 66 | 91 | 0.9 | 1.7 | 0.00 | 0.06 | 0.05 | 67 | 1013.6 |
| 20260505165541 | 66 | 82 | 0.9 | 1.7 | 0.00 | 0.06 | 0.05 | 67 | 1013.7 |
| 20260505164537 | 67 | 83 | 0.0 | 3.5 | 0.00 | 0.06 | 0.05 | 65 | 1013.8 |
| 20260505163534 | 67 | 107 | 0.9 | 3.5 | 0.00 | 0.06 | 0.05 | 65 | 1013.6 |
| 20260505162533 | 67 | 81 | 0.9 | 1.7 | 0.00 | 0.06 | 0.05 | 67 | 1013.8 |
| 20260505161530 | 67 | 75 | 1.7 | 3.5 | 0.00 | 0.06 | 0.05 | 65 | 1013.8 |
| 20260505160526 | 67 | 93 | 0.9 | 5.2 | 0.00 | 0.06 | 0.05 | 65 | 1013.8 |
| 20260505152615 | 68 | 71 | 1.7 | 3.5 | 0.00 | 0.06 | 0.05 | 65 | 1014.4 |
| 20260505151612 | 68 | 30 | 1.7 | 3.5 | 0.00 | 0.06 | 0.05 | 64 | 1014.3 |
| 20260505150609 | 68 | 90 | 0.9 | 5.2 | 0.00 | 0.06 | 0.05 | 64 | 1014.5 |
| 20260505140552 | 66 | 78 | 0.9 | 1.7 | 0.00 | 0.06 | 0.05 | 68 | 1015.1 |